This demonstration page uses our WeatherBlox Daily Observations layout. Learn more.

Left ArrowRight Arrow

Hourly Observations for December 10, 2020

Temp ( °F °C ) Dew Point ( °F °C ) Humidity (%) Winds ( mph kmh ) Pressure ( in mb ) Visibility ( mi km ) Precip ( " mm )
12:15 am 00:15 Clear 40 4.7 25 -4 54 54 S 5 7 29.95 1014 10 16.0934 0 0
12:35 am 00:35 Clear 45 7 26 -3.5 48 48 S 8 13 29.93 1014 10 16.0934 0 0
12:55 am 00:55 Clear 44 6.4 25 -3.9 48 48 SSW 6 9 29.94 1014 10 16.0934 0 0
1:15 am 01:15 Clear 42 5.6 25 -4 50 50 SSW 3 6 29.94 1014 10 16.0934 0 0
1:35 am 01:35 Clear 41 4.8 25 -4.1 53 53 SW 6 9 29.95 1014 10 16.0934 0 0
1:55 am 01:55 Clear 40 4.3 24 -4.4 54 54 SW 3 6 29.94 1014 10 16.0934 0 0
2:15 am 02:15 Clear 39 4 24 -4.5 54 54 SSW 5 7 29.94 1014 10 16.0934 0 0
2:35 am 02:35 Clear 38 3.5 23 -5 54 54 SSW 6 9 29.94 1014 10 16.0934 0 0
2:55 am 02:55 Clear 39 4 23 -5.2 52 52 SW 3 6 29.94 1014 10 16.0934 0 0
3:15 am 03:15 Clear 39 4 22 -5.5 50 50 SSW 5 7 29.93 1013 10 16.0934 0 0
3:35 am 03:35 Clear 38 3.5 22 -5.7 51 51 W 3 6 29.93 1014 10 16.0934 0 0
3:55 am 03:55 Clear 40 4.6 22 -5.8 47 47 Calm 29.91 1013 10 16.0934 0 0
4:15 am 04:15 Clear 38 3.5 21 -6.2 49 49 W 5 7 29.92 1013 10 16.0934 0 0
4:35 am 04:35 Clear 37 2.5 20 -6.5 52 52 WSW 5 7 29.93 1014 10 16.0934 0 0
4:55 am 04:55 Clear 36 2.3 20 -6.7 52 52 W 5 7 29.93 1014 10 16.0934 0 0
5:15 am 05:15 Clear 38 3.6 21 -6.3 49 49 WSW 6 9 29.91 1013 10 16.0934 0 0
5:35 am 05:35 Clear 37 2.8 20 -6.5 51 51 WNW 9 15 29.93 1013 10 16.0934 0 0
5:55 am 05:55 Clear 36 2.4 20 -6.9 51 51 WNW 10 17 29.94 1014 10 16.0934 0 0
6:15 am 06:15 Clear 34 1.1 19 -7 55 55 NW 9 15 29.95 1014 10 16.0934 0 0
6:35 am 06:35 Clear 32 -0.2 20 -6.7 62 62 NW 8 13 29.98 1015 10 16.0934 0 0
6:55 am 06:55 Clear 35 1.7 21 -6.2 56 56 NNW 12 19 29.96 1015 10 16.0934 0 0
7:15 am 07:15 Clear 36 2.1 21 -6.1 55 55 N 10 17 29.96 1015 10 16.0934 0 0
7:35 am 07:35 Clear 35 1.7 21 -6 57 57 N 9 15 29.98 1015 10 16.0934 0 0
7:55 am 07:55 Sunny 34 1.1 22 -5.6 61 61 N 8 13 29.99 1016 10 16.0934 0 0
8:15 am 08:15 Sunny 35 1.6 23 -5 62 62 N 9 15 30 1016 10 16.0934 0 0
8:35 am 08:35 Sunny 35 1.6 24 -4.7 63 63 N 8 13 30.01 1016 10 16.0934 0 0
8:55 am 08:55 Sunny 38 3.5 26 -3.2 62 62 N 14 22 29.99 1016 10 16.0934 0 0
9:15 am 09:15 Sunny 41 4.8 28 -2.5 60 60 N 17 28 29.98 1015 10 16.0934 0 0
9:35 am 09:35 Sunny 42 5.4 29 -1.9 60 60 N 20 31 29.98 1015 10 16.0934 0 0
9:55 am 09:55 Sunny 43 6 29 -1.5 59 59 N 23 37 29.99 1016 10 16.0934 0 0
10:15 am 10:15 Sunny 43 6 30 -1.1 61 61 N 22 35 29.98 1015 10 16.0934 0 0
10:35 am 10:35 Sunny 44 6.5 31 -0.6 61 61 N 21 33 29.97 1015 10 16.0934 0 0
10:55 am 10:55 Sunny 44 6.9 31 -0.5 60 60 N 22 35 29.99 1016 10 16.0934 0 0
11:15 am 11:15 Sunny 45 7.2 32 -0.2 60 60 N 23 37 29.99 1016 10 16.0934 0 0
11:35 am 11:35 Sunny 45 7.3 32 -0.2 59 59 N 25 41 30 1016 10 16.0934 0 0
11:55 am 11:55 Sunny 46 7.5 32 -0.2 58 58 N 24 39 29.99 1015 10 16.0934 0 0
12:15 pm 12:15 Sunny 46 7.6 31 -0.3 58 58 N 24 39 29.96 1015 10 16.0934 0 0
12:35 pm 12:35 Sunny 46 7.6 31 -0.4 57 57 N 22 35 29.95 1014 10 16.0934 0 0
12:55 pm 12:55 Sunny 46 7.5 31 -0.5 57 57 N 22 35 29.97 1015 10 16.0934 0 0
1:15 pm 13:15 Sunny 47 8.2 31 -0.3 55 55 N 22 35 29.96 1015 10 16.0934 0 0
1:35 pm 13:35 Sunny 45 7.3 31 -0.6 58 58 NNE 23 37 29.96 1014 10 16.0934 0 0
1:55 pm 13:55 Sunny 45 7.4 31 -0.6 57 57 N 21 33 29.95 1014 10 16.0934 0 0
2:15 pm 14:15 Sunny 46 7.6 31 -0.7 56 56 N 22 35 29.93 1014 10 16.0934 0 0
2:35 pm 14:35 Sunny 46 7.8 31 -0.7 55 55 NNE 28 44 29.93 1014 10 16.0934 0 0
2:55 pm 14:55 Sunny 45 7 30 -1 57 57 NNE 23 37 29.93 1014 10 16.0934 0 0
3:15 pm 15:15 Sunny 44 6.9 30 -1 58 58 N 25 41 29.94 1014 10 16.0934 0 0
3:35 pm 15:35 Sunny 44 6.6 31 -0.8 60 60 NNE 23 37 29.95 1014 10 16.0934 0 0
3:55 pm 15:55 Sunny 44 6.6 31 -0.7 60 60 N 20 31 29.96 1015 10 16.0934 0 0
4:15 pm 16:15 Sunny 43 6.2 31 -0.6 62 62 NNE 20 31 29.98 1015 10 16.0934 0 0
4:35 pm 16:35 Sunny 42 5.8 31 -0.4 65 65 NNE 24 39 29.98 1015 10 16.0934 0 0
4:55 pm 16:55 Partly Cloudy 41 5.2 31 -0.3 68 68 N 20 31 30 1016 10 16.0934 0 0
5:15 pm 17:15 Partly Cloudy 40 4.6 31 -0.3 71 71 N 22 35 30 1016 10 16.0934 0 0
5:35 pm 17:35 Partly Cloudy 39 4 31 -0.6 72 72 N 17 28 30.02 1016 10 16.0934 0 0
5:55 pm 17:55 Partly Cloudy 39 4 31 -0.5 73 73 N 17 28 30.03 1017 10 16.0934 0 0
6:15 pm 18:15 Partly Cloudy 39 3.7 31 -0.5 74 74 N 17 28 30.03 1017 10 16.0934 0 0
6:35 pm 18:35 Mostly Cloudy 38 3.5 31 -0.5 75 75 N 16 26 30.02 1017 10 16.0934 0 0
6:55 pm 18:55 Mostly Cloudy 38 3.6 31 -0.5 75 75 N 17 28 30.03 1017 10 16.0934 0 0
7:15 pm 19:15 Cloudy 38 3.5 31 -0.5 75 75 N 17 28 30.02 1017 10 16.0934 0 0
7:35 pm 19:35 Mostly Cloudy 38 3.5 31 -0.5 75 75 NNE 22 35 30.01 1016 10 16.0934 0 0
7:55 pm 19:55 Partly Cloudy 38 3.3 31 -0.5 76 76 NNE 20 31 30.02 1017 10 16.0934 0 0
8:15 pm 20:15 Clear 38 3.3 31 -0.6 76 76 NNE 20 31 30.02 1017 10 16.0934 0 0
8:35 pm 20:35 Clear 38 3.1 31 -0.7 76 76 NNE 17 28 30.02 1016 10 16.0934 0 0
8:55 pm 20:55 Clear 37 3 30 -1 75 75 NNE 20 31 30.02 1016 10 16.0934 0 0
9:15 pm 21:15 Clear 37 2.8 30 -1.1 76 76 NNE 16 26 30.02 1017 10 16.0934 0 0
9:35 pm 21:35 Clear 37 2.7 30 -1.1 76 76 N 15 24 30.04 1017 10 16.0934 0 0
9:55 pm 21:55 Partly Cloudy 37 2.6 30 -1.2 76 76 NNE 17 28 30.03 1017 10 16.0934 0 0
10:15 pm 22:15 Partly Cloudy 37 2.6 30 -1.3 76 76 NNE 16 26 30.04 1017 10 16.0934 0 0
10:35 pm 22:35 Partly Cloudy 37 2.5 29 -1.5 75 75 NNE 16 26 30.04 1017 10 16.0934 0 0
10:55 pm 22:55 Mostly Cloudy 36 2.3 29 -1.5 76 76 NNE 14 22 30.04 1017 10 16.0934 0 0
11:15 pm 23:15 Cloudy 36 2.2 29 -1.6 76 76 NNE 14 22 30.04 1017 10 16.0934 0 0
11:35 pm 23:35 Cloudy 36 2.1 29 -1.7 76 76 NNE 13 20 30.04 1017 10 16.0934 0 0
11:55 pm 23:55 Cloudy 36 2 28 -2 75 75 NNE 15 24 30.05 1017 10 16.0934 0 0

Powered by AerisWeather